Location: Navajo
(48.7922°N, 105.0603°W)
Time: 10:25:48
(UTC+00:00)

DUCHIFAT 1 - Pass Details

Date: 29 June 2022
Orbit: 580 x 596 km, 98.0° (Epoch: 07 August)

Event Time Altitude Azimuth Distance (km) Brightness Sun altitude
Rises 08:35:37 0° 27° (NNE) 2,841 ? -15.1°
Reaches altitude 10° 08:38:21 10° 46° (NE) 1,937 ? -14.9°
Maximum altitude 08:41:20 19° 92° (E) 1,450 ? -14.8°
Drops below altitude 10° 08:44:19 10° 137° (SE) 1,930 ? -14.6°
Enters shadow 08:45:20 - 146° (SE) 2,244 ? -14.5°
